Theta_e
341 338 335 335 335 340 341 340 339 337 336 332 327 322 319 317 316 315 314 314 313 313 312 312 311 310 309 309 308 307 306 307 305 305 306 306 306 304 304 304 304 304 303
341 335 326 323 327 334 335 335 332 326 326 323 321 319 318 316 314 314 314 314 314 313 312 311 310 310 309 308 308 308 307 307 306 305 305 305 304 304 304 303 303 303 302
341 335 331 327 323 335 334 330 327 324 322 320 319 318 316 315 314 314 313 311 311 310 308 310 310 309 309 308 308 307 307 306 306 306 306 305 304 304 304 302 302 302 302
339 330 328 326 333 334 331 326 323 323 321 320 318 316 316 315 313 312 309 309 309 309 311 312 312 311 310 309 308 308 307 306 306 306 305 304 303 303 302 303 303 302 302
336 328 324 330 333 331 327 324 324 322 320 319 317 316 315 313 311 310 310 310 311 311 311 312 312 311 310 308 305 304 304 304 303 303 303 303 303 302 302 302 303 301 301
328 329 327 333 330 327 326 324 322 320 319 318 317 316 314 310 309 309 311 311 309 308 306 307 308 308 306 305 304 304 303 301 300 300 301 302 301 301 300 301 302 302 301
330 331 333 331 328 326 325 323 321 320 318 317 316 312 309 310 311 311 309 308 307 306 306 305 305 305 305 304 303 301 299 298 298 298 299 299 299 300 300 300 300 300 301
331 329 333 329 327 326 324 323 322 320 318 315 310 311 311 310 310 309 308 307 306 306 305 304 304 303 301 299 297 296 296 296 296 297 297 298 298 298 298 298 300 300 300
334 334 330 329 327 325 323 323 321 317 312 310 311 310 310 311 310 308 307 306 306 305 304 303 300 298 296 296 295 295 295 295 296 296 296 296 297 297 298 298 299 300 300
330 329 329 327 327 325 323 320 316 310 311 311 311 312 312 311 309 307 306 305 305 304 303 300 296 295 295 294 295 295 294 294 294 295 296 297 297 298 299 299 299 300 300
329 328 327 327 327 323 319 314 310 310 311 311 312 311 310 308 306 306 305 303 301 300 298 296 296 295 295 294 294 293 293 293 294 296 297 297 297 298 299 299 299 299 299
329 328 327 324 320 318 311 310 311 311 312 310 308 307 306 306 306 304 302 299 298 297 297 296 296 295 295 294 293 293 293 294 295 297 297 297 297 298 298 298 298 299 300
328 328 322 321 315 310 311 311 310 309 308 307 306 306 306 305 303 301 298 297 297 297 296 296 296 295 295 294 293 293 293 294 296 296 297 297 296 297 298 299 300 300 301
328 326 320 318 312 311 311 309 308 307 306 306 306 305 304 303 300 297 297 297 297 296 296 296 295 295 294 294 293 292 292 294 295 296 296 296 297 299 299 300 301 303 304
327 320 318 314 313 311 309 308 307 306 306 306 305 304 302 298 297 296 296 296 295 295 295 295 295 294 294 293 293 292 292 293 295 295 295 296 298 300 301 303 303 304 303
322 320 314 313 310 309 307 306 306 306 306 305 304 302 299 297 295 295 295 295 295 295 295 294 294 293 292 292 292 292 292 292 293 294 295 297 299 300 302 303 305 305 305
320 315 311 311 309 307 306 307 307 306 304 304 301 299 297 296 295 294 294 295 295 295 294 294 293 293 292 292 292 292 293 293 293 294 297 298 300 302 303 304 305 305 304
314 311 311 308 307 306 307 307 306 304 304 303 301 298 297 295 295 294 294 295 295 294 293 293 293 292 292 293 293 293 294 294 296 298 298 299 301 302 303 305 305 305 304
314 310 308 306 306 307 307 306 304 305 304 302 300 298 296 295 295 295 294 294 295 294 293 293 293 293 293 294 295 296 296 297 298 299 300 300 301 302 304 305 304 304 304
310 307 307 306 307 307 305 303 305 305 303 302 299 297 296 296 296 296 296 296 295 294 294 294 294 294 295 295 296 297 298 299 300 300 300 301 302 304 305 305 304 304 303
306 306 306 307 307 305 303 305 305 304 303 301 298 297 296 296 296 297 297 297 297 296 295 296 296 297 298 298 299 299 300 301 302 303 304 305 305 305 304 304 304 304 304
306 306 307 306 305 303 305 305 304 304 302 299 298 298 296 297 297 298 298 299 299 299 299 298 299 299 300 300 301 302 303 303 304 305 305 305 304 304 304 305 304 303 303
306 306 307 305 303 304 305 304 304 303 300 299 298 298 297 297 297 298 299 300 300 300 300 300 300 300 301 301 302 303 304 304 305 305 306 306 306 306 305 305 304 303 303
306 307 305 302 303 304 304 304 303 301 299 299 298 298 297 297 298 299 300 301 301 301 301 301 301 301 301 303 303 304 304 306 306 306 305 304 304 304 304 304 304 303 303
307 305 303 302 303 303 304 302 302 301 300 299 298 297 297 297 298 300 300 301 302 303 303 304 302 301 301 302 303 305 306 306 305 305 304 304 304 304 304 304 305 305 305
305 303 302 302 302 302 301 300 301 301 300 299 298 297 297 298 299 300 302 302 303 304 304 303 302 301 302 302 302 304 306 306 305 305 304 304 304 304 304 305 305 306 305
Wind_Speed
9 23 33 35 34 25 14 11 9 10 9 6 6 5 7 6 8 10 12 13 14 14 14 16 16 18 20 22 25 25 26 32 32 30 29 28 26 29 28 33 27 27 21
13 11 34 37 42 22 10 5 4 3 3 3 4 4 5 8 10 11 11 12 14 14 13 14 17 18 21 26 27 29 31 31 30 30 31 32 31 31 34 24 23 21 18
17 20 18 24 20 15 9 7 3 0 2 2 3 5 6 8 10 11 12 12 12 13 14 16 18 22 25 26 31 30 29 29 29 31 36 31 32 35 31 20 21 19 19
13 20 19 4 8 5 5 3 1 1 2 3 3 5 7 10 10 10 11 11 13 17 20 24 25 26 29 29 29 28 29 30 30 31 28 30 34 33 18 18 22 17 20
12 22 5 1 4 1 2 1 1 1 2 3 6 7 10 10 9 10 14 17 20 22 24 26 26 26 27 25 25 27 29 30 32 33 33 31 27 18 14 18 21 18 19
17 3 3 2 1 2 2 3 2 1 3 5 7 10 12 10 11 16 19 21 23 21 24 23 24 26 28 29 31 32 33 25 20 21 24 19 22 21 19 16 20 16 18
19 6 5 1 2 2 3 2 1 4 6 6 10 12 10 14 19 20 20 21 21 24 25 26 28 30 34 33 28 28 26 23 22 21 21 16 15 17 18 17 11 16 16
15 6 4 1 3 1 0 2 4 6 7 10 9 10 15 19 21 22 20 21 23 27 28 30 31 30 25 22 20 20 20 17 15 12 13 13 15 16 16 17 15 14 17
7 2 2 5 1 1 3 4 5 7 10 6 11 15 18 20 22 22 21 25 30 32 31 29 25 19 17 17 19 20 20 17 14 14 15 15 15 14 12 14 11 12 16
7 4 4 2 3 2 3 3 6 7 6 10 14 19 20 19 20 22 28 31 33 31 25 21 20 17 19 19 17 19 20 19 16 13 12 7 6 3 2 4 5 7 7
11 6 3 4 5 2 3 5 5 5 9 14 18 18 17 18 22 28 32 30 23 20 19 18 16 18 20 19 16 16 15 16 13 12 8 7 6 3 4 5 7 11 5
11 6 5 4 4 2 2 3 6 9 12 15 15 15 17 22 26 29 24 19 19 18 17 16 16 17 16 17 15 14 14 13 10 7 8 7 5 3 0 5 8 5 5
10 7 7 5 2 2 2 6 8 10 11 11 13 17 21 25 24 20 20 20 18 17 17 16 15 14 13 15 14 14 10 8 8 9 7 8 9 7 5 5 5 1 2
14 9 8 6 2 3 6 8 8 7 9 12 16 20 23 20 20 21 21 20 19 18 18 16 14 13 12 13 13 13 8 7 8 7 7 10 11 10 11 9 9 9 8
12 9 9 2 2 4 4 4 5 8 12 15 20 20 19 20 19 19 18 18 20 19 16 17 16 15 14 13 13 11 9 5 6 6 7 9 10 10 11 12 10 10 12
10 10 5 2 6 4 2 4 7 11 15 19 19 16 17 15 15 16 18 17 18 19 18 18 18 17 16 14 14 13 13 9 6 6 7 9 10 12 14 12 14 15 12
7 8 5 4 4 2 2 6 9 12 17 17 14 15 17 16 15 18 18 16 17 18 20 19 17 17 16 15 15 14 13 11 6 5 11 11 13 15 13 16 14 16 17
8 5 5 4 2 1 3 8 11 14 13 13 13 15 16 15 16 17 17 17 21 21 21 19 19 18 17 17 16 15 15 15 19 17 14 10 13 15 12 14 14 13 15
8 10 10 6 3 2 6 10 12 12 12 14 14 15 16 16 19 21 21 22 21 20 21 20 20 19 18 17 20 21 19 17 16 17 14 11 11 11 13 15 13 15 17
5 8 11 4 4 5 9 11 10 11 11 13 13 15 17 18 24 26 27 26 21 20 20 20 21 19 19 18 17 16 15 15 13 14 12 12 10 12 15 17 18 19 19
11 11 7 5 5 8 10 10 11 11 12 12 12 15 16 19 22 23 24 24 25 25 22 19 20 20 19 19 21 21 19 15 16 17 16 17 20 20 20 16 17 17 17
12 9 6 6 9 11 11 12 11 11 11 11 11 14 14 17 18 20 20 21 21 23 22 22 21 20 21 22 24 24 20 20 21 20 21 24 23 21 20 19 19 17 20
8 6 5 7 11 12 13 13 11 10 11 11 11 14 13 15 16 16 18 20 19 20 20 19 19 18 19 19 24 22 21 20 19 20 22 17 16 17 17 17 17 23 22
8 6 6 9 12 13 14 13 11 12 12 11 11 12 12 14 15 15 17 19 18 18 19 18 18 18 19 21 23 20 19 22 24 21 22 20 18 17 19 22 21 18 15
8 4 7 11 12 13 11 13 13 13 13 11 11 11 11 13 13 14 15 17 17 20 21 18 18 16 17 17 18 21 20 21 24 20 18 16 17 17 18 17 15 12 11
6 7 11 12 12 12 14 15 14 15 13 11 10 10 10 12 12 12 16 17 19 23 22 21 20 18 17 16 15 16 17 22 19 18 19 19 18 16 14 13 12 11 10
Wind_Direction
306 40 14 352 344 315 294 279 246 219 220 213 215 238 258 281 300 308 311 309 304 300 300 296 291 295 293 299 299 295 301 304 296 299 298 300 295 296 303 313 295 302 295
273 262 319 311 311 319 292 257 252 160 157 213 223 253 292 302 306 311 311 307 305 304 308 296 298 301 301 301 298 296 292 297 295 295 297 298 294 297 314 306 297 295 294
292 325 304 328 273 294 298 297 343 191 168 169 311 317 311 316 320 316 315 318 314 312 317 309 300 297 287 286 283 285 289 287 288 288 290 287 292 303 311 298 300 294 294
309 336 348 89 206 253 326 354 133 145 345 351 354 339 331 332 327 323 328 327 316 311 303 297 295 291 292 293 295 293 292 293 292 285 283 292 300 306 289 304 306 294 295
330 331 78 83 193 309 313 158 157 243 357 5 357 344 334 326 323 319 322 316 312 308 307 306 303 304 306 306 302 297 297 297 295 294 293 293 285 297 299 300 300 295 302
355 120 349 280 210 298 165 168 157 54 14 357 335 329 324 316 317 317 315 313 310 308 314 308 304 304 304 304 301 298 299 306 306 303 301 291 289 283 295 297 295 293 296
335 268 305 333 329 277 177 175 75 19 357 334 320 318 325 326 323 316 314 311 310 317 314 311 310 310 309 305 306 306 304 301 297 297 282 272 275 277 281 284 293 290 292
322 248 257 90 325 2 338 325 357 346 330 322 321 327 329 324 318 312 309 312 316 315 314 315 317 317 315 318 326 329 331 328 319 315 306 299 290 288 279 277 265 288 300
0 311 280 339 329 286 6 342 331 323 321 325 326 326 322 315 311 311 312 314 315 317 319 320 323 326 334 330 329 328 332 328 321 319 310 297 289 293 283 263 252 266 299
337 307 296 252 250 294 347 321 314 325 317 329 324 321 320 318 317 316 317 317 318 322 330 333 348 350 340 336 330 330 331 335 336 329 332 335 305 286 62 192 226 291 297
306 283 263 253 245 214 300 296 319 325 327 320 321 322 323 322 322 320 320 326 333 341 347 352 351 349 350 347 341 339 337 335 331 337 354 2 7 317 292 275 275 289 269
299 265 251 217 195 266 288 356 349 328 321 323 326 327 329 328 325 323 331 349 346 349 348 346 342 340 347 353 351 347 348 343 352 27 41 49 50 43 270 265 274 251 252
268 240 211 218 211 341 350 334 334 335 329 330 334 335 331 330 329 336 356 357 358 353 351 346 343 348 353 1 358 355 352 4 43 57 45 18 5 341 358 35 83 111 8
250 229 221 236 183 289 329 340 337 335 338 344 341 336 337 340 347 355 354 357 2 1 359 360 0 3 4 4 5 7 12 15 33 46 25 12 6 73 57 77 61 37 64
235 213 224 262 257 283 319 338 353 352 350 348 342 345 349 359 2 352 355 4 5 2 1 5 9 13 12 12 14 25 17 29 56 47 27 16 74 67 80 60 66 66 88
226 209 181 179 261 264 341 27 7 355 351 348 352 358 9 11 359 6 11 19 14 11 15 15 17 18 17 21 25 47 41 45 44 36 27 61 75 73 65 79 62 105 80
241 170 132 63 226 260 45 13 8 1 356 359 6 12 16 14 18 18 22 22 17 19 25 24 24 25 30 35 39 39 41 37 42 71 81 74 84 70 75 58 85 101 78
157 133 63 134 182 241 9 14 5 5 10 16 19 25 18 28 25 24 35 37 35 33 29 33 40 43 42 45 42 42 50 70 82 70 70 94 79 70 64 66 87 74 96
160 133 108 150 147 54 20 7 12 24 26 26 31 33 34 37 35 43 41 38 36 34 39 45 46 49 46 50 65 58 58 70 76 66 64 97 83 70 64 91 80 94 100
141 128 132 129 78 33 11 18 34 33 24 25 33 39 39 40 53 51 49 46 47 47 52 51 53 51 62 63 63 70 62 59 72 64 70 94 83 70 95 103 94 97 96
154 142 144 111 60 22 23 39 40 35 29 31 49 47 47 59 61 55 51 48 48 51 51 55 57 59 59 58 56 48 46 57 68 80 79 79 87 91 97 90 113 89 95
152 141 125 61 31 30 43 44 42 34 38 48 68 57 61 72 63 58 51 47 46 48 52 53 51 51 50 50 46 44 62 74 81 82 81 92 86 90 91 92 93 96 104
149 135 81 43 42 51 48 46 41 41 46 60 78 63 73 76 67 60 51 47 46 54 54 54 51 55 51 58 45 54 74 80 86 81 93 93 89 88 84 97 85 104 106
144 98 49 57 59 55 51 44 47 49 52 65 83 69 81 84 73 61 51 48 54 59 58 51 58 54 48 57 50 72 81 82 92 88 84 81 80 82 86 93 98 103 101
116 80 73 67 61 56 52 52 49 51 55 68 88 75 83 97 80 67 59 49 47 52 61 54 58 63 64 54 54 74 86 90 89 83 75 79 87 94 90 86 77 72 75
102 90 81 67 60 55 58 50 49 52 54 67 91 80 83 110 97 68 63 59 52 60 61 61 60 65 64 64 71 77 86 100 87 78 77 78 84 87 84 74 65 63 82